Погода на Ивисе

Испания     38°58′52″N   1°24′46″E
темп.,
°C
ветер,
м/с
пор.,
м/с
влажн.,
%
обл.,
%
осадки,
мм/ч
давл.,
гПа
погр.,
м
2 июля, сб
сб223:00+23вюв57750 0.0 1019454
02:00+23всв477322 0.0 1018365
05:00+22всв6974100 0.0 1017461
08:00+23св57694 0.0 1017589
11:00+25всв676221 0.0 1018657
14:00+26в685540 0.0 1018706
17:00+27в67570 0.0 1018538
20:00+25всв466351 0.0 1017406
3 июля, вс
вс323:00+23св34797 0.0 1018138
02:00+22ссв238234 0.0 1018101
05:00+22св1277100 0.0 101784
08:00+24ссв346991 0.0 1017191
11:00+26всв4457100 0.0 1017433
14:00+28вюв325380 0.0 1018601
17:00+27вюв44583 0.0 1016386
20:00+27зсз12635 0.0 1016293
4 июля, пн
пн423:00+24св457998 0.0 1016111
02:00+23ссз11792 0.0 101724
05:00+23с227499 0.0 101639
08:00+25вюв127163 0.0 1016129
11:00+28в335871 0.0 1017479
14:00+30юз0155100 0.0 1017622
17:00+29в325939 0.0 1016505
20:00+28всв44635 0.0 1014257
5 июля, вт
вт523:00+25юв22811 0.0 101715
02:00+24юз22840 0.0 101829
05:00+23с348496 0.0 101689
08:00+25св45825 0.0 1017258
11:00+27вюв56645 0.0 1018489
14:00+28вюв56570 0.0 1018552
17:00+29вюв455469 0.0 1018503
20:00+27в45670 0.0 1016266
6 июля, ср
ср623:00+24св48855 0.0 1019219
02:00+24ссв118578 0.0 101917
05:00+23сз128235 0.0 101824
08:00+25всв2375100 0.0 101878
11:00+27ссв446698 0.0 1018384
14:00+29в54587 0.0 1019663
17:00+29вюв335433 0.0 1018628
20:00+27вюв34642 0.0 1017222